QPF
0.00 0.00 0.00 0.00 0.00 0.00 0.00 0.00 0.00 0.00 0.00 0.00 0.00 0.00 0.00 0.00 0.00 0.00 0.00 0.00 0.00 0.00 0.00 0.00 0.00 0.00 0.00 0.00 0.00 0.00 0.00 0.00 0.00 0.00 0.00 0.00 0.00 0.00 0.01 0.01 0.00 0.00 0.00 0.00
0.00 0.00 0.00 0.00 0.00 0.00 0.00 0.00 0.00 0.00 0.00 0.00 0.00 0.00 0.00 0.00 0.00 0.00 0.00 0.00 0.00 0.00 0.00 0.00 0.00 0.00 0.00 0.00 0.00 0.00 0.00 0.00 0.00 0.00 0.00 0.00 0.00 0.00 0.00 0.01 0.01 0.00 0.00 0.00
0.00 0.00 0.00 0.00 0.00 0.00 0.00 0.00 0.00 0.00 0.00 0.00 0.00 0.00 0.00 0.00 0.00 0.00 0.00 0.00 0.00 0.00 0.00 0.00 0.00 0.00 0.00 0.00 0.00 0.00 0.00 0.00 0.00 0.00 0.00 0.00 0.00 0.00 0.00 0.00 0.01 0.00 0.00 0.00
0.00 0.00 0.00 0.00 0.00 0.00 0.00 0.00 0.00 0.00 0.00 0.00 0.00 0.00 0.00 0.00 0.00 0.00 0.00 0.00 0.00 0.00 0.00 0.00 0.00 0.00 0.00 0.00 0.00 0.00 0.00 0.00 0.00 0.00 0.00 0.00 0.00 0.00 0.00 0.00 0.00 0.00 0.00 0.00
0.00 0.00 0.00 0.00 0.00 0.00 0.00 0.00 0.00 0.00 0.00 0.00 0.00 0.00 0.00 0.00 0.00 0.00 0.00 0.00 0.00 0.00 0.00 0.00 0.00 0.00 0.00 0.00 0.00 0.00 0.00 0.00 0.00 0.00 0.00 0.01 0.00 0.00 0.00 0.00 0.00 0.00 0.00 0.00
0.00 0.00 0.00 0.00 0.00 0.00 0.00 0.00 0.00 0.00 0.00 0.00 0.00 0.00 0.00 0.00 0.00 0.00 0.00 0.00 0.00 0.00 0.00 0.00 0.00 0.00 0.00 0.00 0.00 0.00 0.00 0.00 0.00 0.00 0.00 0.00 0.00 0.00 0.00 0.00 0.00 0.00 0.00 0.00
0.00 0.00 0.00 0.00 0.00 0.00 0.00 0.00 0.00 0.00 0.00 0.00 0.00 0.00 0.00 0.00 0.00 0.00 0.00 0.00 0.00 0.00 0.00 0.00 0.00 0.00 0.00 0.00 0.00 0.00 0.00 0.00 0.00 0.00 0.00 0.00 0.00 0.00 0.00 0.00 0.00 0.00 0.00 0.00
0.00 0.00 0.00 0.00 0.00 0.00 0.00 0.00 0.00 0.00 0.00 0.00 0.00 0.00 0.00 0.00 0.00 0.00 0.00 0.00 0.00 0.00 0.00 0.00 0.00 0.00 0.00 0.00 0.00 0.00 0.00 0.00 0.00 0.00 0.00 0.00 0.00 0.00 0.00 0.00 0.00 0.00 0.00 0.00
0.00 0.00 0.00 0.00 0.00 0.00 0.00 0.00 0.00 0.00 0.00 0.00 0.00 0.00 0.00 0.00 0.00 0.00 0.00 0.00 0.00 0.00 0.00 0.00 0.00 0.00 0.00 0.00 0.00 0.00 0.00 0.00 0.00 0.00 0.00 0.00 0.00 0.00 0.00 0.00 0.00 0.00 0.00 0.00
0.00 0.00 0.00 0.00 0.00 0.00 0.00 0.00 0.00 0.00 0.00 0.00 0.00 0.00 0.00 0.00 0.00 0.00 0.00 0.00 0.00 0.00 0.00 0.00 0.00 0.00 0.00 0.00 0.00 0.00 0.00 0.00 0.00 0.00 0.00 0.00 0.00 0.00 0.00 0.00 0.00 0.00 0.00 0.00
0.00 0.00 0.00 0.00 0.00 0.00 0.00 0.00 0.00 0.00 0.00 0.00 0.00 0.00 0.00 0.00 0.00 0.00 0.00 0.00 0.00 0.00 0.00 0.00 0.00 0.00 0.00 0.00 0.00 0.00 0.00 0.00 0.00 0.00 0.00 0.00 0.00 0.00 0.00 0.00 0.00 0.00 0.00 0.00
0.00 0.00 0.00 0.00 0.00 0.00 0.00 0.00 0.00 0.00 0.00 0.00 0.00 0.00 0.00 0.00 0.00 0.00 0.00 0.00 0.00 0.00 0.00 0.00 0.00 0.00 0.00 0.00 0.00 0.00 0.00 0.00 0.00 0.00 0.00 0.00 0.00 0.00 0.00 0.00 0.00 0.00 0.00 0.00
0.00 0.00 0.00 0.00 0.00 0.00 0.00 0.00 0.00 0.00 0.00 0.00 0.00 0.00 0.00 0.00 0.00 0.00 0.00 0.00 0.00 0.00 0.00 0.00 0.00 0.00 0.00 0.00 0.00 0.00 0.00 0.00 0.00 0.00 0.00 0.00 0.00 0.00 0.00 0.00 0.00 0.00 0.00 0.00
0.00 0.00 0.00 0.00 0.00 0.00 0.00 0.00 0.00 0.00 0.00 0.00 0.00 0.00 0.00 0.00 0.00 0.00 0.00 0.00 0.00 0.00 0.00 0.00 0.00 0.00 0.00 0.00 0.00 0.00 0.00 0.00 0.00 0.00 0.00 0.00 0.00 0.00 0.00 0.00 0.00 0.00 0.00 0.00
0.00 0.00 0.00 0.00 0.00 0.00 0.00 0.00 0.00 0.00 0.00 0.00 0.00 0.00 0.00 0.00 0.00 0.00 0.00 0.00 0.00 0.00 0.00 0.00 0.00 0.00 0.00 0.00 0.00 0.00 0.00 0.00 0.00 0.00 0.00 0.00 0.00 0.00 0.00 0.00 0.00 0.00 0.00 0.00
0.00 0.00 0.00 0.00 0.00 0.00 0.00 0.00 0.00 0.00 0.00 0.00 0.00 0.00 0.00 0.00 0.00 0.00 0.00 0.00 0.00 0.00 0.00 0.00 0.00 0.00 0.00 0.00 0.00 0.00 0.00 0.00 0.00 0.00 0.00 0.00 0.00 0.00 0.00 0.00 0.00 0.00 0.00 0.00
0.00 0.00 0.00 0.00 0.00 0.00 0.00 0.00 0.00 0.00 0.00 0.00 0.00 0.00 0.00 0.00 0.00 0.00 0.00 0.00 0.00 0.00 0.00 0.00 0.00 0.00 0.00 0.00 0.00 0.00 0.00 0.00 0.00 0.00 0.00 0.00 0.00 0.00 0.00 0.00 0.00 0.00 0.00 0.00
0.00 0.00 0.00 0.00 0.00 0.00 0.00 0.00 0.00 0.00 0.00 0.00 0.00 0.00 0.00 0.00 0.00 0.00 0.00 0.00 0.00 0.00 0.00 0.00 0.00 0.00 0.00 0.00 0.00 0.00 0.00 0.00 0.00 0.00 0.00 0.00 0.00 0.00 0.00 0.00 0.00 0.00 0.00 0.00
0.00 0.00 0.00 0.00 0.00 0.00 0.00 0.00 0.00 0.00 0.00 0.00 0.00 0.00 0.00 0.00 0.00 0.00 0.00 0.00 0.00 0.00 0.00 0.00 0.00 0.00 0.00 0.00 0.00 0.00 0.00 0.00 0.00 0.00 0.00 0.00 0.00 0.00 0.00 0.00 0.00 0.00 0.00 0.00
0.00 0.00 0.00 0.00 0.00 0.00 0.00 0.00 0.00 0.00 0.00 0.00 0.00 0.00 0.00 0.00 0.00 0.00 0.00 0.00 0.00 0.00 0.00 0.00 0.00 0.00 0.00 0.00 0.00 0.00 0.00 0.00 0.00 0.00 0.00 0.00 0.00 0.00 0.00 0.00 0.00 0.00 0.00 0.00
0.00 0.00 0.00 0.00 0.00 0.00 0.00 0.00 0.00 0.00 0.00 0.00 0.00 0.00 0.00 0.00 0.00 0.00 0.00 0.00 0.00 0.00 0.00 0.00 0.00 0.00 0.00 0.00 0.00 0.00 0.00 0.00 0.00 0.00 0.00 0.00 0.00 0.00 0.00 0.00 0.00 0.00 0.00 0.00
0.00 0.00 0.00 0.00 0.00 0.00 0.00 0.00 0.00 0.00 0.00 0.00 0.00 0.00 0.00 0.00 0.00 0.00 0.00 0.00 0.00 0.00 0.00 0.00 0.00 0.00 0.00 0.00 0.00 0.00 0.00 0.00 0.00 0.00 0.00 0.00 0.00 0.00 0.00 0.00 0.00 0.00 0.00 0.00
0.00 0.00 0.00 0.00 0.00 0.00 0.00 0.00 0.00 0.00 0.00 0.00 0.00 0.00 0.00 0.00 0.00 0.00 0.00 0.00 0.00 0.00 0.00 0.00 0.00 0.00 0.00 0.00 0.00 0.00 0.00 0.00 0.00 0.00 0.00 0.00 0.00 0.00 0.00 0.00 0.00 0.00 0.00 0.00
0.00 0.00 0.00 0.00 0.00 0.00 0.00 0.00 0.00 0.00 0.00 0.00 0.00 0.00 0.00 0.00 0.00 0.00 0.00 0.00 0.00 0.00 0.00 0.00 0.00 0.00 0.00 0.00 0.00 0.00 0.00 0.00 0.00 0.00 0.00 0.00 0.00 0.00 0.00 0.00 0.00 0.00 0.00 0.00
0.00 0.00 0.00 0.00 0.00 0.00 0.00 0.00 0.00 0.00 0.00 0.00 0.00 0.00 0.00 0.00 0.00 0.00 0.00 0.00 0.00 0.00 0.00 0.00 0.00 0.00 0.00 0.00 0.00 0.00 0.00 0.00 0.00 0.00 0.00 0.00 0.00 0.00 0.00 0.00 0.00 0.00 0.00 0.00
0.00 0.00 0.00 0.00 0.00 0.00 0.00 0.00 0.00 0.00 0.00 0.00 0.00 0.00 0.00 0.00 0.00 0.00 0.00 0.00 0.00 0.00 0.00 0.00 0.00 0.00 0.00 0.00 0.00 0.00 0.00 0.00 0.00 0.00 0.00 0.00 0.00 0.00 0.00 0.00 0.00 0.00 0.00 0.00
0.00 0.00 0.00 0.00 0.00 0.00 0.00 0.00 0.00 0.00 0.00 0.00 0.00 0.00 0.00 0.00 0.00 0.00 0.00 0.00 0.00 0.00 0.00 0.00 0.00 0.00 0.00 0.00 0.00 0.00 0.00 0.00 0.00 0.00 0.00 0.00 0.00 0.00 0.00 0.00 0.00 0.00 0.00 0.00
MSLP
1000.63 1001.91 1003.78 1005.66 1007.25 1008.70 1009.88 1011.09 1012.79 1013.34 1013.26 1013.98 1014.20 1014.04 1013.27 1012.64 1012.82 1012.65 1013.13 1013.67 1014.29 1014.97 1015.60 1016.05 1016.14 1015.74 1015.20 1015.20 1015.47 1016.03 1016.28 1016.57 1015.89 1014.69 1013.65 1013.28 1013.40 1013.64 1014.07 1014.35 1013.07 1012.67 1012.97 1015.10
1000.15 1002.09 1003.72 1005.67 1006.52 1008.06 1009.46 1010.96 1012.41 1013.32 1013.25 1013.56 1013.96 1013.33 1013.09 1013.00 1012.91 1013.32 1013.75 1014.16 1014.67 1015.29 1015.93 1016.33 1016.05 1015.96 1015.54 1015.68 1015.93 1016.13 1016.51 1016.68 1016.35 1014.37 1014.25 1013.37 1013.57 1014.08 1013.81 1013.90 1013.77 1012.65 1013.70 1015.68
1000.51 1002.24 1003.87 1005.40 1006.60 1008.14 1008.72 1010.26 1012.78 1013.80 1013.52 1013.21 1013.19 1013.33 1013.32 1013.36 1013.39 1013.80 1014.13 1014.69 1015.11 1015.67 1016.21 1016.27 1016.37 1016.34 1016.03 1015.92 1015.97 1016.05 1016.38 1016.43 1016.36 1015.59 1014.34 1014.38 1014.14 1014.03 1013.69 1013.26 1013.27 1013.06 1014.56 1016.21
1001.35 1002.43 1004.30 1005.55 1006.79 1007.90 1008.68 1009.93 1011.26 1011.54 1012.81 1013.21 1013.10 1013.04 1013.21 1013.51 1013.84 1014.20 1014.53 1015.05 1015.30 1015.82 1016.42 1016.54 1016.55 1016.37 1016.47 1015.91 1015.62 1015.82 1016.13 1016.10 1015.86 1015.18 1014.57 1014.91 1014.95 1014.51 1014.05 1011.97 1012.68 1013.82 1015.96 1017.53
1001.80 1003.50 1005.22 1006.20 1007.11 1007.96 1008.84 1009.54 1010.05 1011.43 1011.97 1012.30 1012.61 1013.09 1013.58 1013.55 1013.97 1014.32 1014.87 1015.10 1015.36 1015.94 1016.21 1015.93 1016.12 1016.29 1016.30 1015.95 1015.71 1015.87 1015.96 1015.77 1015.52 1014.54 1014.30 1014.83 1015.44 1015.20 1015.24 1014.50 1014.97 1015.89 1016.98 1018.74
1003.05 1004.45 1005.68 1006.46 1007.14 1007.79 1008.50 1009.20 1009.45 1009.44 1011.95 1012.34 1012.65 1012.98 1013.28 1013.61 1014.07 1014.64 1014.66 1015.02 1015.51 1015.60 1015.35 1015.24 1015.29 1015.21 1015.40 1015.50 1015.61 1015.77 1015.83 1015.56 1015.33 1014.10 1014.03 1014.71 1015.67 1016.56 1016.46 1016.59 1016.88 1017.08 1017.85 1019.74
1003.83 1005.05 1005.87 1006.53 1007.03 1007.34 1008.01 1008.69 1009.05 1010.41 1012.29 1012.25 1012.37 1012.65 1012.94 1013.73 1014.38 1014.86 1014.83 1015.07 1015.35 1014.98 1014.82 1014.74 1014.54 1014.57 1014.71 1014.89 1014.53 1015.11 1014.95 1015.07 1014.95 1014.57 1014.42 1015.47 1016.78 1017.30 1017.50 1017.77 1018.45 1018.84 1019.51 1020.61
1004.55 1005.26 1005.90 1006.54 1007.01 1007.43 1008.17 1008.89 1009.09 1010.31 1012.09 1012.13 1012.40 1012.73 1013.41 1014.17 1014.56 1014.96 1015.03 1014.85 1014.82 1014.86 1014.91 1014.49 1014.31 1014.44 1014.52 1014.07 1014.00 1014.12 1014.02 1014.34 1014.23 1013.73 1014.91 1016.63 1017.10 1017.93 1018.22 1018.29 1019.69 1020.29 1020.70 1021.32
1004.93 1005.57 1006.13 1006.54 1007.00 1007.54 1008.16 1009.21 1009.18 1010.04 1011.63 1012.84 1012.36 1013.10 1013.73 1014.44 1014.94 1015.32 1015.13 1014.86 1014.79 1014.88 1014.95 1014.90 1015.02 1014.65 1014.56 1014.04 1013.84 1013.85 1013.70 1013.30 1013.82 1014.04 1014.93 1016.80 1018.00 1018.52 1018.79 1019.02 1020.51 1021.28 1021.69 1022.23
1005.66 1006.18 1006.53 1007.01 1007.30 1007.55 1007.89 1009.56 1009.65 1010.26 1012.08 1012.98 1012.80 1013.21 1013.77 1014.38 1015.06 1015.45 1015.54 1015.40 1015.22 1015.03 1015.40 1015.57 1015.47 1014.99 1014.59 1014.53 1014.54 1014.32 1014.19 1014.01 1014.42 1014.71 1015.96 1017.91 1019.02 1019.18 1019.10 1020.16 1022.18 1022.20 1022.74 1023.38
1006.37 1006.79 1007.02 1007.32 1007.65 1007.78 1008.15 1010.42 1010.23 1010.30 1012.22 1013.31 1012.99 1013.07 1013.76 1014.43 1014.98 1015.51 1015.71 1015.97 1015.80 1015.85 1016.03 1016.04 1015.90 1015.46 1015.26 1015.09 1015.53 1015.59 1015.76 1015.75 1016.09 1016.42 1017.39 1019.49 1019.97 1019.51 1020.03 1021.68 1022.47 1023.15 1024.01 1024.71
1006.98 1007.24 1007.53 1007.81 1008.12 1008.32 1008.57 1010.49 1010.72 1010.53 1011.75 1013.63 1013.62 1013.51 1013.59 1013.82 1014.27 1014.91 1015.65 1016.00 1016.10 1016.22 1016.34 1016.42 1016.18 1015.99 1015.79 1015.90 1016.31 1016.49 1016.99 1017.57 1017.86 1019.02 1019.86 1020.81 1021.36 1021.47 1021.82 1022.11 1023.13 1024.11 1024.67 1025.58
1007.49 1007.87 1008.14 1008.29 1008.52 1008.73 1009.13 1010.64 1011.06 1011.18 1012.89 1013.97 1013.98 1014.01 1013.97 1013.94 1013.98 1014.20 1015.06 1015.79 1015.75 1016.02 1016.07 1016.33 1016.30 1016.10 1016.22 1016.52 1017.35 1017.71 1018.24 1018.44 1019.08 1020.09 1021.08 1021.64 1022.24 1022.61 1022.89 1023.28 1023.99 1024.75 1025.51 1026.28
1008.19 1008.50 1008.75 1009.17 1009.30 1009.39 1009.52 1010.84 1011.45 1011.63 1012.96 1014.46 1014.80 1013.96 1013.98 1013.80 1013.97 1014.26 1014.59 1015.15 1015.63 1015.98 1016.12 1016.34 1016.40 1016.29 1016.49 1017.48 1018.08 1018.69 1019.37 1019.36 1019.96 1021.10 1021.87 1022.39 1023.00 1023.44 1023.65 1024.20 1024.65 1025.23 1025.87 1026.51
1008.88 1009.30 1009.65 1009.68 1009.96 1010.22 1010.54 1011.17 1011.96 1011.97 1012.75 1014.43 1015.04 1014.56 1014.20 1013.98 1014.14 1014.45 1014.76 1015.26 1015.79 1016.29 1016.50 1016.53 1016.68 1016.58 1017.09 1017.97 1018.51 1019.36 1019.75 1020.05 1020.41 1021.05 1021.41 1022.41 1023.29 1023.93 1024.15 1024.70 1025.38 1025.83 1026.21 1026.88
1009.65 1009.99 1010.21 1010.46 1010.63 1010.73 1011.18 1012.08 1012.30 1012.37 1012.77 1014.02 1015.34 1015.37 1014.78 1014.36 1014.44 1014.77 1015.16 1015.61 1016.03 1016.47 1016.73 1016.87 1016.76 1016.57 1017.07 1018.42 1019.36 1020.07 1020.44 1020.43 1020.44 1021.20 1021.86 1022.47 1023.40 1024.16 1024.53 1025.07 1025.73 1026.27 1026.85 1027.44
1010.30 1010.73 1010.90 1010.97 1011.05 1011.27 1012.16 1013.02 1013.07 1012.75 1013.10 1014.48 1015.94 1015.79 1015.19 1014.84 1014.99 1015.48 1015.82 1015.96 1016.39 1016.61 1016.96 1016.95 1016.81 1017.05 1017.56 1018.84 1019.85 1020.47 1020.77 1020.93 1021.10 1021.68 1022.37 1023.36 1023.80 1024.43 1024.91 1025.46 1026.30 1026.97 1027.52 1028.08
1011.07 1011.19 1011.37 1011.53 1011.67 1011.94 1012.73 1013.17 1012.99 1013.19 1013.95 1014.71 1016.03 1016.36 1015.80 1015.33 1015.80 1016.24 1016.39 1016.59 1016.82 1017.01 1017.17 1017.09 1017.09 1017.61 1018.32 1019.51 1020.01 1020.59 1020.95 1021.42 1021.79 1022.06 1022.30 1022.86 1023.86 1024.63 1025.43 1026.12 1026.77 1027.53 1028.17 1028.80
1011.51 1011.82 1011.88 1012.00 1012.61 1013.43 1013.85 1013.58 1013.52 1013.62 1014.43 1015.39 1016.19 1016.51 1016.49 1015.97 1016.38 1016.54 1016.85 1017.02 1017.44 1017.46 1017.38 1017.26 1017.30 1018.01 1018.87 1019.24 1019.76 1020.34 1020.85 1021.25 1021.89 1022.51 1022.94 1023.60 1024.17 1025.04 1025.82 1026.51 1027.28 1027.95 1028.71 1029.27
1012.15 1012.37 1012.74 1013.60 1013.98 1013.87 1013.83 1014.01 1014.24 1014.44 1015.21 1015.72 1016.56 1016.86 1016.62 1016.58 1016.95 1017.15 1017.51 1017.64 1017.64 1017.54 1017.42 1017.24 1017.58 1018.37 1018.87 1019.38 1019.84 1020.28 1020.82 1021.35 1021.88 1022.52 1023.34 1023.96 1024.68 1025.36 1026.14 1026.88 1027.75 1028.51 1029.18 1030.04
1012.89 1013.42 1013.95 1014.21 1013.96 1014.15 1014.57 1015.24 1015.66 1016.07 1016.48 1016.49 1016.81 1016.88 1016.73 1016.68 1016.95 1017.28 1017.70 1017.99 1017.94 1017.80 1017.44 1017.51 1018.07 1018.57 1019.03 1019.60 1020.12 1020.51 1020.95 1021.44 1022.03 1022.39 1022.98 1023.84 1024.55 1025.35 1026.54 1027.58 1028.68 1029.48 1030.27 1031.12
1013.48 1013.48 1014.13 1014.36 1014.53 1014.82 1015.29 1016.22 1016.67 1016.80 1016.97 1016.97 1016.90 1016.96 1016.82 1016.94 1016.88 1017.35 1017.92 1018.14 1018.19 1017.96 1017.56 1017.81 1018.23 1018.59 1019.10 1019.79 1020.43 1020.87 1021.23 1021.79 1022.43 1022.91 1023.60 1024.40 1025.21 1026.06 1027.34 1028.77 1029.78 1030.55 1031.23 1032.19
1013.82 1014.00 1014.58 1014.85 1015.42 1015.71 1016.27 1016.81 1017.11 1017.19 1017.05 1017.07 1017.08 1017.21 1017.13 1017.10 1017.16 1017.77 1018.07 1018.37 1018.73 1018.04 1018.24 1018.33 1018.50 1018.89 1019.55 1020.17 1020.91 1021.57 1021.95 1022.41 1023.13 1023.93 1024.61 1025.43 1026.35 1027.35 1028.56 1029.79 1030.82 1031.57 1032.42 1033.10
1014.49 1014.73 1015.22 1015.53 1015.95 1016.06 1016.51 1016.69 1016.77 1016.77 1016.81 1016.90 1016.86 1017.47 1017.32 1017.64 1017.79 1018.61 1018.89 1018.95 1018.78 1019.06 1019.46 1019.19 1019.08 1019.33 1020.11 1020.82 1021.50 1022.17 1022.94 1023.47 1024.07 1024.91 1025.75 1026.72 1027.72 1028.93 1030.00 1030.67 1031.42 1032.08 1033.18 1033.63
1015.30 1015.29 1015.67 1015.98 1016.08 1015.99 1015.99 1016.14 1016.28 1016.52 1016.70 1016.84 1017.16 1017.58 1017.74 1018.13 1018.53 1018.59 1019.15 1019.56 1019.82 1019.83 1019.60 1019.62 1019.61 1020.01 1020.71 1021.57 1022.29 1022.98 1023.73 1024.50 1025.31 1026.07 1027.02 1028.03 1028.94 1029.95 1031.10 1031.60 1031.93 1032.36 1033.11 1033.65
1015.94 1015.94 1015.96 1016.08 1016.11 1016.13 1016.07 1016.03 1016.18 1016.34 1016.49 1016.75 1017.16 1017.92 1018.32 1018.78 1018.89 1019.14 1019.54 1020.05 1020.02 1019.71 1019.62 1019.78 1020.47 1020.80 1021.47 1022.20 1022.92 1023.74 1024.47 1025.22 1026.14 1026.98 1027.82 1028.74 1029.52 1030.25 1031.09 1031.82 1032.19 1032.53 1032.88 1033.34
1016.48 1016.49 1016.33 1016.20 1016.21 1016.28 1016.25 1016.13 1016.17 1016.13 1016.49 1017.47 1017.77 1018.22 1018.47 1018.85 1019.20 1019.57 1019.69 1019.85 1019.40 1019.45 1019.78 1020.01 1020.54 1021.18 1021.98 1022.80 1023.61 1024.44 1025.20 1026.00 1026.77 1027.65 1028.53 1029.18 1029.78 1030.31 1031.03 1031.66 1032.06 1032.37 1032.58 1032.69
Thickness
5485 5482 5472 5463 5454 5447 5442 5435 5417 5427 5429 5421 5419 5421 5449 5461 5452 5453 5448 5446 5444 5436 5430 5427 5426 5431 5436 5433 5431 5420 5416 5392 5405 5420 5436 5440 5439 5437 5431 5419 5465 5477 5469 5441
5477 5468 5462 5452 5450 5443 5435 5427 5422 5418 5422 5417 5413 5433 5441 5441 5442 5437 5436 5433 5434 5430 5423 5416 5423 5421 5427 5419 5414 5410 5406 5396 5386 5430 5429 5443 5441 5433 5440 5437 5439 5477 5446 5428
5463 5456 5450 5445 5441 5432 5432 5424 5405 5405 5411 5410 5424 5426 5428 5428 5432 5429 5429 5426 5425 5420 5414 5416 5408 5409 5412 5409 5403 5414 5405 5397 5394 5408 5437 5437 5426 5434 5436 5444 5450 5458 5436 5429
5445 5443 5437 5435 5432 5427 5427 5419 5408 5422 5408 5407 5413 5418 5425 5423 5421 5423 5423 5420 5420 5415 5405 5404 5401 5402 5389 5400 5411 5410 5400 5403 5405 5414 5427 5425 5420 5422 5426 5469 5469 5461 5430 5413
5433 5429 5423 5423 5423 5419 5420 5417 5418 5410 5408 5412 5413 5417 5415 5421 5419 5418 5416 5416 5414 5405 5400 5407 5396 5400 5396 5394 5407 5407 5410 5406 5406 5414 5430 5425 5409 5411 5413 5422 5431 5422 5413 5401
5418 5416 5415 5416 5415 5416 5415 5414 5418 5423 5408 5405 5407 5406 5413 5417 5409 5416 5418 5412 5407 5401 5405 5409 5408 5414 5409 5411 5411 5406 5403 5405 5408 5431 5428 5425 5418 5404 5406 5405 5407 5421 5430 5396
5409 5407 5408 5409 5410 5414 5413 5412 5415 5405 5395 5407 5412 5416 5419 5411 5408 5394 5414 5408 5405 5413 5408 5408 5410 5409 5410 5413 5418 5408 5411 5408 5411 5429 5428 5428 5402 5401 5402 5398 5395 5398 5396 5385
5399 5401 5402 5403 5405 5406 5406 5405 5410 5404 5386 5406 5413 5415 5409 5405 5404 5396 5394 5409 5407 5403 5408 5418 5419 5419 5420 5422 5419 5421 5416 5418 5423 5447 5429 5407 5410 5395 5396 5407 5389 5383 5386 5384
5393 5394 5396 5398 5400 5402 5402 5400 5407 5405 5401 5398 5411 5404 5406 5400 5391 5399 5403 5405 5403 5404 5401 5412 5403 5412 5419 5432 5434 5424 5426 5428 5433 5442 5452 5429 5396 5388 5393 5399 5382 5377 5377 5376
5383 5386 5389 5392 5396 5400 5405 5396 5402 5402 5387 5391 5402 5400 5401 5395 5391 5391 5391 5396 5397 5402 5390 5392 5406 5416 5421 5418 5416 5423 5425 5429 5429 5441 5432 5404 5379 5380 5394 5405 5383 5370 5368 5362
5376 5379 5385 5389 5392 5399 5402 5390 5397 5401 5384 5389 5401 5404 5395 5389 5386 5378 5390 5383 5387 5390 5392 5401 5396 5399 5397 5413 5406 5407 5407 5411 5409 5424 5432 5419 5373 5393 5402 5375 5367 5363 5356 5350
5371 5377 5382 5387 5390 5395 5400 5389 5393 5401 5396 5389 5389 5394 5396 5397 5393 5384 5385 5384 5385 5376 5386 5396 5388 5398 5402 5387 5386 5400 5403 5389 5394 5384 5381 5366 5365 5370 5369 5372 5365 5357 5354 5347
5370 5374 5379 5383 5388 5393 5396 5388 5391 5396 5386 5383 5385 5389 5390 5392 5393 5393 5384 5380 5387 5386 5386 5388 5388 5402 5400 5407 5380 5387 5382 5384 5378 5374 5369 5365 5363 5363 5362 5361 5356 5352 5347 5340
5366 5370 5375 5378 5384 5389 5393 5388 5388 5392 5384 5373 5378 5387 5391 5392 5391 5391 5389 5386 5382 5381 5380 5382 5387 5396 5398 5383 5375 5370 5370 5376 5379 5366 5363 5363 5359 5356 5358 5355 5352 5347 5344 5339
5363 5365 5370 5376 5379 5383 5386 5386 5384 5388 5388 5373 5374 5379 5385 5388 5388 5387 5386 5382 5378 5373 5376 5377 5389 5389 5389 5366 5375 5360 5371 5372 5362 5354 5366 5361 5359 5350 5354 5350 5344 5342 5342 5336
5359 5362 5366 5371 5375 5380 5381 5373 5381 5384 5384 5377 5359 5369 5380 5385 5384 5384 5383 5377 5372 5370 5373 5372 5375 5389 5377 5349 5364 5364 5354 5365 5366 5365 5359 5356 5355 5349 5349 5346 5341 5337 5333 5329
5356 5358 5362 5368 5372 5376 5371 5367 5372 5379 5380 5369 5356 5369 5376 5379 5377 5370 5370 5370 5368 5370 5368 5371 5382 5379 5372 5339 5352 5359 5352 5357 5358 5357 5356 5350 5348 5345 5343 5341 5336 5330 5325 5322
5351 5355 5359 5363 5367 5369 5364 5367 5372 5374 5371 5369 5351 5367 5375 5376 5366 5367 5360 5362 5362 5365 5366 5367 5374 5370 5357 5348 5350 5351 5349 5350 5352 5355 5357 5353 5345 5341 5336 5333 5329 5323 5319 5316
5347 5351 5356 5360 5358 5354 5356 5362 5367 5371 5368 5356 5349 5359 5364 5365 5359 5358 5357 5354 5342 5356 5359 5365 5375 5365 5346 5346 5359 5356 5352 5353 5351 5347 5346 5344 5343 5337 5332 5329 5324 5320 5315 5313
5342 5347 5346 5336 5346 5352 5356 5356 5354 5356 5359 5362 5351 5349 5368 5364 5347 5347 5348 5345 5344 5367 5372 5365 5359 5345 5355 5345 5351 5352 5352 5350 5349 5345 5342 5340 5336 5333 5329 5327 5322 5316 5313 5308
5337 5338 5340 5342 5347 5348 5347 5340 5343 5344 5353 5354 5350 5353 5354 5359 5350 5362 5350 5347 5348 5356 5364 5369 5360 5353 5353 5345 5345 5346 5346 5347 5345 5346 5345 5341 5337 5334 5326 5320 5315 5310 5306 5299
5333 5339 5337 5340 5343 5346 5349 5343 5346 5353 5356 5345 5349 5348 5358 5358 5356 5351 5351 5351 5344 5356 5366 5369 5366 5346 5351 5348 5344 5343 5343 5340 5339 5339 5336 5334 5332 5328 5322 5312 5306 5301 5295 5287
5329 5333 5334 5335 5337 5341 5326 5327 5349 5330 5342 5345 5343 5343 5351 5347 5352 5341 5347 5332 5331 5357 5368 5379 5354 5352 5348 5344 5339 5335 5335 5336 5332 5330 5329 5326 5322 5316 5309 5300 5292 5289 5284 5276
5327 5331 5328 5326 5327 5346 5324 5329 5328 5340 5338 5342 5344 5343 5348 5339 5346 5322 5333 5335 5345 5328 5347 5362 5341 5352 5343 5338 5335 5331 5327 5325 5324 5321 5317 5311 5306 5296 5292 5291 5286 5284 5278 5270
5321 5327 5331 5327 5326 5337 5334 5343 5349 5347 5336 5344 5345 5341 5349 5341 5345 5344 5335 5341 5333 5334 5341 5331 5331 5343 5339 5332 5327 5322 5318 5316 5313 5310 5304 5298 5293 5290 5282 5276 5278 5280 5273 5267
5317 5323 5331 5328 5335 5340 5344 5348 5352 5347 5347 5339 5345 5348 5340 5337 5325 5356 5330 5337 5332 5334 5333 5335 5326 5335 5332 5329 5325 5319 5314 5311 5305 5301 5298 5293 5290 5289 5284 5275 5272 5270 5270 5265
5314 5317 5317 5329 5335 5336 5340 5344 5347 5346 5348 5327 5342 5329 5333 5334 5339 5338 5328 5319 5322 5321 5337 5342 5336 5330 5325 5321 5317 5313 5309 5305 5301 5296 5293 5288 5284 5283 5281 5279 5272 5271 5270 5263